Regional Weather Roundup
Issued by NWS

Home | Current Version | Previous Version | Graphics & Text | Print | Product List | Glossary On
Versions: 1 2 3 4 5 6 7 8 9 10 11 12 13 14 15 16 17 18 19 20 21 22 23 24 25 26 27 28 29 30 31 32 33 34 35 36 37 38 39 40 41 42 43 44 45 46 47 48 49 50
000
ASUS43 KDTX 011801
RWRMI
MICHIGAN HOURLY REGIONAL WEATHER ROUNDUP
NATIONAL WEATHER SERVICE DETROIT/PONTIAC MI
100 PM EST SUN FEB 01 2015

NOTE: "FAIR" INDICATES FEW OR NO CLOUDS BELOW 12,000 FEET WITH NO
SIGNIFICANT WEATHER AND/OR OBSTRUCTION TO VISIBILITY.

MIZ047>049-052>055-059>063-066>070-074>076-081>083-011900-
SOUTHEAST LOWER MICHIGAN

CITY           SKY/WX    TMP DP  RH WIND       PRES   REMARKS
ADRIAN         SNOW      24  21  88 E21G26    29.95F VSB 1/4 WCI   9
6HR MIN TEMP:  24; 6HR MAX TEMP:  27; 6HR PCP: TRACE;

ALMA           LGT SNOW  15  12  89 NE17G24   30.08F WCI  -1
ANN ARBOR      SNOW      22  19  89 NE12G22   29.98F VSB 1/2 WCI  10
BAD AXE        LGT SNOW  15  10  83 NE9       30.16F WCI   3
6HR MIN TEMP:  14; 6HR MAX TEMP:  18;

CARO           LGT SNOW  16  11  82 NE12G17   30.12F VSB 1   WCI   3
DETROIT CITY   SNOW      23  18  81 NE13      30.04F VSB 1/2 WCI  11
6HR MIN TEMP:  23; 6HR MAX TEMP:  25; 6HR PCP:  0.03;

DETROIT        HVY SNOW  23  19  85 NE14G20   30.01F VSB 1/4 WCI  11
6HR MIN TEMP:  23; 6HR MAX TEMP:  26; 6HR PCP:  0.17;

FLINT          SNOW      19  13  77 NE15      30.06F VSB 1/2 WCI   5
6HR MIN TEMP:  19; 6HR MAX TEMP:  21; 6HR PCP:  0.14;

GROSSE ILE     LGT SNOW  23  19  86 NE20      29.99F VSB 3/4 WCI   8
HILLSDALE      SNOW      24  22  92 E14G21    29.90F VSB 1/4 WCI  12
6HR MIN TEMP:  24; 6HR MAX TEMP:  29;

HOWELL         LGT SNOW  19  16  89 NE13G21   30.00F VSB 1   WCI   6
6HR MIN TEMP:  19; 6HR MAX TEMP:  21;


CITY           SKY/WX    TMP DP  RH WIND       PRES   REMARKS
JACKSON        SNOW      22  18  85 NE13G20   29.95F VSB 1/4 WCI  10
6HR MIN TEMP:  22; 6HR MAX TEMP:  24; 6HR PCP:  0.20;

LAMBERTVILLE   SNOW      28  23  80 E9G21     29.95F VSB 1/2 WCI  20
LANSING        SNOW      18  14  84 NE17G28   30.02F VSB 1/4 WCI   3
6HR MIN TEMP:  18; 6HR MAX TEMP:  19; 6HR PCP:  0.17;

LAPEER         LGT SNOW  17  13  83 NE10G16   30.07F WCI   5
MASON          SNOW      19  15  86 NE18      29.99F VSB 1/2 WCI   4
MONROE         SNOW      25  21  86 NE15      29.96F VSB 1/4 WCI  12
MT. CLEMENS    SNOW      22  19  87 NE15      30.03F VSB 1/2 WCI   9
6HR MIN TEMP:  21; 6HR MAX TEMP:  23; 6HR PCP:  0.13;

PONTIAC        SNOW      20  16  84 NE14      30.01F VSB 1/2 WCI   7
6HR MIN TEMP:  19; 6HR MAX TEMP:  20; 6HR PCP:  0.02;

PORT HOPE        N/A     16   9  74 NE21      30.18F WCI  -1
6HR MIN TEMP:  16; 6HR MAX TEMP:  18;

PORT HURON     LGT SNOW  18  16  93 NE15      30.09F WCI   3
TRI CITIES     SNOW      16  11  80 NE20      30.13F VSB 1/2 WCI  -1
6HR MIN TEMP:  16; 6HR MAX TEMP:  18; 6HR PCP: TRACE;

TROY           SNOW      23  19  84 NE13      30.05F VSB 1/2 WCI  11
SAGINAW HB     LGT SNOW  18  14  86 NE17G23   30.11F WCI   2
$$
MIZ043>046-050>051-056>058-064>065-071>073-077>080-011900-
SOUTHWEST LOWER MICHIGAN

CITY           SKY/WX    TMP DP  RH WIND       PRES   REMARKS
BATTLE CREEK   HVY SNOW  22  17  81 NE15G24   29.93F VSB 1/4 WCI   9
6HR MIN TEMP:  22; 6HR MAX TEMP:  26; 6HR PCP:  0.03;

BENTON HARBOR  SNOW      22  20  92 E20G31    29.86F VSB 1/2 WCI   7
6HR MIN TEMP:  22; 6HR MAX TEMP:  27; 6HR PCP:  0.03;

BIG RAPIDS     LGT SNOW  13  10  87 NE15      30.06F VSB 1   WCI  -3
6HR MIN TEMP:  13; 6HR MAX TEMP:  15;

COLDWATER      SNOW      24  22  93 E14       29.90F VSB 1/2 WCI  12
6HR MIN TEMP:  24; 6HR MAX TEMP:  28;

FREMONT        LGT SNOW  15  10  80 E22G30    30.04F WCI  -3
6HR MIN TEMP:  15; 6HR MAX TEMP:  16;

HOLLAND        SNOW      19  14  81 E16G28    29.97F VSB 1/2 WCI   4
6HR MIN TEMP:  19; 6HR MAX TEMP:  24; 6HR PCP:  0.11;

GRAND RAPIDS   SNOW      17  13  84 NE22G31   29.99F VSB 1/2 WCI   0
6HR MIN TEMP:  16; 6HR MAX TEMP:  21; 6HR PCP:  0.18;

IONIA          SNOW      18  14  86 NE21G30   30.00F VSB 1/2 WCI   1
KALAMAZOO      HVY SNOW  22  17  81 E12G22    29.92F VSB 1/4 WCI  10
6HR MIN TEMP:  22; 6HR MAX TEMP:  26; 6HR PCP:  0.16;

LUDINGTON      LGT SNOW  16  10  80 NE12G17   30.11F WCI   2
6HR MIN TEMP:  16; 6HR MAX TEMP:  17;

MARSHALL       SNOW      21  18  89 E10G17    29.93F VSB 1/2 WCI  10
MOUNT PLEASANT LGT SNOW  15  10  82 NE12G21   30.10F VSB 1   WCI   2
6HR MIN TEMP:  13; 6HR MAX TEMP:  16; 6HR PCP:  0.01;

MUSKEGON       SNOW      17  11  77 NE16G29   30.03F VSB 1/2 WCI   2
6HR MIN TEMP:  17; 6HR MAX TEMP:  18; 6HR PCP:  0.13;

SOUTH HAVEN    SNOW      22  18  85 E17       29.90F VSB 1/2 WCI   8
$$
MIZ016>042-011900-
NORTHERN LOWER MICHIGAN

CITY           SKY/WX    TMP DP  RH WIND       PRES   REMARKS
ALPENA         LGT SNOW   7   1  76 NE9       30.27F WCI  -7
6HR MIN TEMP:   6; 6HR MAX TEMP:   7; 6HR PCP: TRACE;

BEAVER ISLAND  CLOUDY    -1  -8  74 CALM      30.30F
6HR MIN TEMP:  -2; 6HR MAX TEMP:   1;

BELLAIRE       CLOUDY    10   0  63 NE12      30.23F WCI  -5
6HR MIN TEMP:   9; 6HR MAX TEMP:  10;

CADILLAC       LGT SNOW  10   4  78 NE13      30.08F WCI  -6
CHARLEVOIX     CLOUDY     7   1  75 NE14      30.27F WCI -10
6HR MIN TEMP:   5; 6HR MAX TEMP:   7;

FRANKFORT      CLOUDY    12   4  69 E8G17     30.18F WCI   1
GAYLORD        CLOUDY     5  -1  76 NE9       30.17F WCI  -9
6HR MIN TEMP:   3; 6HR MAX TEMP:   5; 6HR PCP: TRACE;

GRAYLING       CLOUDY     8   1  71 NE14      30.16F WCI  -8
6HR MIN TEMP:   8; 6HR MAX TEMP:   9;

HARBOR SPRINGS CLOUDY     6  -1  71 NE13      30.26F WCI -10
HOUGHTON LAKE  CLOUDY    10   2  69 NE15      30.14F WCI  -7
6HR MIN TEMP:   8; 6HR MAX TEMP:  11;

MANISTEE       CLOUDY    12   3  67 E10       30.14F WCI  -1
OSCODA         LGT SNOW  12   8  81 NE14      30.22F WCI  -3
PELLSTON       CLOUDY     6  -2  69 E14G20    30.28F WCI -11
6HR MIN TEMP:   2; 6HR MAX TEMP:   6;

TRAVERSE CITY  CLOUDY    12   2  64 NE14      30.19F WCI  -3
6HR MIN TEMP:  11; 6HR MAX TEMP:  12;

$$
MIZ007>008-015-011900-
EASTERN UPPER MICHIGAN

CITY           SKY/WX    TMP DP  RH WIND       PRES   REMARKS
KINROSS        PTSUNNY   -4 -15  59 N6        30.32F WCI -16
6HR MIN TEMP:  -9; 6HR MAX TEMP:  -4;

MACKINAC ISLAN CLOUDY    -1  -9  71 NE13      30.30F WCI -20
6HR MIN TEMP:  -4; 6HR MAX TEMP:  -1;

NEWBERRY       CLOUDY    -3 -12  65 NE7       30.31S WCI -16
S. S. MARIE    PTSUNNY   -4 -17  53 CALM      30.33F
6HR MIN TEMP: -11; 6HR MAX TEMP:  -4;

$$
MIZ004>006-011>014-085-011900-
CENTRAL UPPER MICHIGAN

CITY           SKY/WX    TMP DP  RH WIND       PRES   REMARKS
MANISTIQUE     CLOUDY     2 -13  49 NE10      30.31F WCI -14
6HR MIN TEMP:  -1; 6HR MAX TEMP:   2;

ESCANABA       CLOUDY     7  -2  66 NE12      30.29F WCI  -9
6HR MIN TEMP:   5; 6HR MAX TEMP:   9;

MENOMINEE      CLOUDY     9  -2  61 NE16G28   30.25F WCI  -9
6HR MIN TEMP:   7; 6HR MAX TEMP:  12;

SAWYER-GWINN   LGT SNOW   9   3  78 NE14      30.24F WCI  -8
$$
MIZ001>003-009>011-084-011900-
WESTERN UPPER MICHIGAN

CITY           SKY/WX    TMP DP  RH WIND       PRES   REMARKS
IRON MOUNTAIN  CLOUDY    11   0  61 NE10      30.21F WCI  -3
6HR MIN TEMP:   8; 6HR MAX TEMP:  11; 6HR PCP: TRACE;

HOUGHTON       PTSUNNY    8   1  73 E8        30.29F WCI  -4
6HR MIN TEMP:   2; 6HR MAX TEMP:   8; 6HR PCP: TRACE;

COPPER HARBOR    N/A     10   0  63 E12       30.35F WCI  -5
6HR MIN TEMP:   9; 6HR MAX TEMP:  10; 6HR PCP:  0.01;

IRONWOOD       CLOUDY    10   1  67 NE8       30.24F WCI  -1
6HR MIN TEMP:   0; 6HR MAX TEMP:  10;

$$

ABBREVIATIONS USED IN REMARKS
   TC - TEMPERATURE IN CELSIUS
  WCI - WIND CHILL INDEX
   HX - HEAT INDEX
  VSB - VISIBILITY




USA.gov is the U.S. government's official web portal to all federal, state and local government web resources and services.